720  
ASUS46 KLOX 202013  
RWRCA  
 
SOUTHERN CALIFORNIA WEATHER ROUNDUP  
NATIONAL WEATHER SERVICE OXNARD CALIFORNIA  
100 PM PDT SUN AUG 20 2017  
 
NOTE: "FAIR" INDICATES FEW OR NO CLOUDS BELOW 12,000 FEET WITH NO  
SIGNIFICANT WEATHER AND/OR S TO VISIBILITY
.  
 
- STATIONS PRECEEDED BY AN ASTERISK (*) ARE NOT NWS OR FAA  
STATIONS AND ARE NOT SUBJECT TO NWS AND FAA QUALITY CONTROL.
 
 
CAZ041-042-087-202100-  
LA AND ORANGE COUNTY COASTAL AREAS  
 
 
CITY SKY/WX TMP DP RH WIND PRES REMARKS
 
L.A. DOWNTOWN SUNNY 79 61 53 CALM 29.91F  
L.A. AIRPORT MOSUNNY 74 61 63 W14 29.93F  
LONG BEACH SUNNY 75 61 61 S9 29.93S  
 
CITY SKY/WX TMP DP RH WIND PRES REMARKS
 
AVALON N/A 73 N/A N/A MISG N/A  
FULLERTON SUNNY 80 62 54 S10 29.90F  
*GETTY CENTER N/A N/A N/A N/A SW13G20 N/A  
HAWTHORNE SUNNY 74 60 61 SW9 29.93F  
*LEO CARRILLO N/A 72 60 67 SW6 N/A  
*LOS ALAMITOS MOSUNNY 76 62 62 S9 29.92F  
*REDONDO BEACH N/A 75 61 62 CALM 29.92F  
SANTA ANA MOSUNNY 76 62 62 S12 29.92F  
STA MONICA APT SUNNY 72 61 68 SW12 29.94S  
TORRANCE MOSUNNY 73 61 64 NW15 29.92F  
*UCLA N/A 72 59 64 SW6 29.90F  
 

 
 
CAZ547-548-048-202100-  
LA COUNTY VALLEYS AND INLAND EMPIRE  
 
 
CITY SKY/WX TMP DP RH WIND PRES REMARKS
 
BURBANK SUNNY 79 58 48 S8 29.92F  
VAN NUYS SUNNY 79 59 50 VRB7 29.92F  
 
CITY SKY/WX TMP DP RH WIND PRES REMARKS
 
CORONA AIRPORT CLEAR 83 61 47 VRB7 29.91F  
*CHATSWORTH N/A 80 61 50 SW3 29.88F  
CHINO MOSUNNY 87 57 35 W6 29.92F  
*CLAREMONT N/A 82 58 43 SW5 N/A  
MARCH AFB SUNNY 84 57 39 NW5 29.93F  
ONTARIO SUNNY 83 54 36 S6 29.92F  
*PASADENA N/A 81 64 57 CALM N/A  
POMONA SUNNY 79 59 50 W6 29.95F  
RIVERSIDE SUNNY 83 58 42 W6 29.91F  
SAN BERNARDINO SUNNY 86 50 28 CALM 29.92F HAZE  
*SAN RAFAEL HI N/A 81 60 48 SW5 N/A  
*WHITEMAN AP NOT AVBL  
*WHITTIER HILL N/A 82 59 44 S7 N/A  
*WOODLAND HILL N/A 81 59 47 N3 N/A  
 

 
 
CAZ054-055-202100-  
LA AND SAN BERNARDINO COUNTY MOUNTAINS  
 
 
CITY SKY/WX TMP DP RH WIND PRES REMARKS
 
*ACTON N/A 83 56 38 SW12 N/A  
*BIG BEAR AIRP CLEAR 73 28 19 S5 30.20S  
*BIG PINES N/A 74 35 23 SW3 N/A  
*CHILAO N/A 75 31 20 SE23 N/A  
SANDBERG SUNNY 83 37 19 SW16G24 30.08F  
*WARM SPRINGS N/A 82 45 26 S2 N/A  
 

 
 
CAZ028-029-059-060-099-202100-  
ANTELOPE VALLEY AND SURROUNDING AREAS  
 
 
CITY SKY/WX TMP DP RH WIND PRES REMARKS
 
LANCASTER SUNNY 92 43 18 SW13G21 29.92F  
PALMDALE SUNNY 92 42 17 S8 29.93F  
*POPPY PARK N/A 88 41 19 SW18 N/A  
 
CITY SKY/WX TMP DP RH WIND PRES REMARKS
 
29 PALMS SUNNY 97 32 10 VRB3G17 29.95F HX 91  
BARSTOW/DAGGET SUNNY 97 42 15 NE12G20 29.86F HX 93  
BISHOP SUNNY 94 36 13 SE14G22 29.98F  
CHINA LAKE SUNNY 98 43 15 VRB6 29.89F HX 94  
EDWARDS AFB SUNNY 93 41 16 CALM 29.89F  
MOJAVE SUNNY 90 43 19 CALM 29.94F  
NEEDLES SUNNY 105 43 12 MISG 29.81F HX 100  
VICTORVILLE SUNNY 91 30 11 S16 29.95F  
 

 
 
CAZ039-040-202100-  
VENTURA AND SANTA BARBARA COUNTY COAST  
 
 
CITY SKY/WX TMP DP RH WIND PRES REMARKS
 
CAMARILLO MOSUNNY 74 61 63 S13 29.93F  
NWS OXNARD N/A 75 60 60 CALM 29.93S  
OXNARD AIRPORT MOSUNNY 69 57 65 SW10 29.94S  
*POINT MUGU PTSUNNY 71 59 65 SW13 29.95S  
SBA APT/GOLETA CLOUDY 70 60 70 S8 29.94F  
*SANTA BARBARA N/A 75 58 55 CALM 30.01F  
*VENTURA N/A 73 61 65 W2 29.90S  
 

 
 
CAZ044-045-202100-  
VENTURA COUNTY VALLEYS  
 
 
CITY SKY/WX TMP DP RH WIND PRES REMARKS
 
*SIMI VALLEY N/A 83 61 47 W1 29.85F  
*WESTLAKE VILL N/A 82 63 51 S1 29.89S  
*OJAI N/A 82 63 51 W3 29.84F  
*FILLMORE N/A 84 63 48 SW2 29.93F  
 

 
 
CAZ053-202100-  
VENTURA COUNTY MOUNTAINS  
 
 
CITY SKY/WX TMP DP RH WIND PRES REMARKS
 
*LOCKWOOD VLY N/A 79 37 22 SW1 N/A  
*FRAZIER MTN N/A 63 29 27 E5 29.81F  
*ROSE VALLEY N/A 79 55 44 MISG N/A  
 

 
 
CAZ034-035-036-202100-  
CENTRAL COAST AND SANTA YNEZ VALLEY  
 
 
CITY SKY/WX TMP DP RH WIND PRES REMARKS
 
SAN LUIS OBISP CLOUDY 69 59 70 W12 29.94S  
SANTA MARIA PTSUNNY 72 61 68 NW14 29.93F  
 
CITY SKY/WX TMP DP RH WIND PRES REMARKS
 
*CAL POLY SLO N/A N/A N/A N/A SW3 N/A  
*LOMPOC SUNNY 75 61 61 S10G16 29.92F  
*PISMO BEACH N/A 66 62 87 W3 29.95S  
*SANTA YNEZ FAIR 77 57 50 SW10G16 29.92S  
 

 
 
CAZ037-038-051-202100-  
SAN LUIS OBISPO COUNTY INTERIOR AND CUYAMA VALLEY  
 
 
CITY SKY/WX TMP DP RH WIND PRES REMARKS
 
*CUYAMA N/A 87 55 33 W5 29.75F  
PASO ROBLES SUNNY 76 58 53 SW10 29.91F  
 

 
 
CAZ032-033-061-202100-  
SOUTHERN DESERTS  
 
 
CITY SKY/WX TMP DP RH WIND PRES REMARKS
 
BLYTHE SUNNY 103 43 13 MISG 29.80F HX 98  
IMPERIAL SUNNY 100 57 23 NE6 29.77F HX 99  
PALM SPRINGS SUNNY 100 40 12 VRB5 29.82F HX 95  
THERMAL SUNNY 100 49 17 E7G16 29.75F HX 97  
 

 
 
ELSEWHERE ACROSS THE WESTERN UNITED STATES AND MEXICO  
 
 
CITY SKY/WX TMP DP RH WIND PRES REMARKS
 
DEATH VALLEY, N/A 111 49 12 SE2 N/A HX 107  
DENVER, CO MOSUNNY 88 36 15 E10 30.12F  
GRAND CANYON, PTSUNNY 80 44 27 SW8 30.24F  
HONOLULU, HI MOSUNNY 82 68 61 E15 29.98S  
KAHULUI, MAUI MOSUNNY 86 73 66 NE21 29.97S HX 93  
LAKE TAHOE, CA SUNNY 77 45 32 VRB3 30.17F  
LAS VEGAS, NV MOSUNNY 99 42 14 S7 29.89F HX 94  
MAMMOTH LAKES, FAIR 80 29 15 SE5G10 30.23F  
MEXICO CITY, M MOSUNNY 75 46 35 NE6 30.27F  
PHOENIX, AZ CLOUDY 95 52 23 SW6 29.87F HX 92  
PORTLAND, OR PTSUNNY 72 52 49 N6 30.11F  
RENO, NV MOSUNNY 87 36 16 VRB3 30.05F  
SALT LAKE CITY MOSUNNY 92 37 14 W7 30.01F  
SAN DIEGO, CA MOSUNNY 74 60 61 SW12 29.95F  
SAN FRANCISCO, MOSUNNY 68 58 70 N12 29.90S  
SAN JOSE, CA MOSUNNY 78 57 48 W3 29.87F  
SEATTLE, WA PTSUNNY 70 52 52 VRB6 30.15F  
TIJUANA, MEX SUNNY 75 59 57 W5 29.96F  
 

 
 
STATION/POSITION TIME TEMP WIND PRES VSBY WAVE
 
AIR SEA DIR/SP/G HT/PER  
(UTC) (F) (DEG/KT/KT) (MB) (MI) (FT/S)  
POINT ARGUELLO B NOT AVBL  
WEST SANTA BARBA 2000 63 63 180/ 8/ 10 1013.7  
POINT CONCEPTION NOT AVBL  
EAST SANTA BARBA 2000 67 66 110/ 4/ 6 1014.6  
SANTA MONICA BAY 2000 71 210/ 6/ 8 1014.0  
 
CLICK HERE TO GO TO PREVIOUS BULLETINS.

The Nexlab CA Page Main Text Page